Location: Byhalia Creek
(34.8270°N, 89.8040°W)
Time: 17:34:12
(UTC+00:00)

Cosmos 2322 Rocket - Pass Details

Date: 22 April 2026
Orbit: 832 x 849 km, 71.0° (Epoch: 9 May)

Event Time Altitude Azimuth Distance (km) Brightness Sun altitude
Rises 09:34:55 0° 328° (NNW) 3,394 5.4 -20.3°
Reaches altitude 10° 09:37:33 10° 319° (NW) 2,458 4.5 -19.8°
Maximum altitude 09:42:34 34° 256° (WSW) 1,358 2.7 -19.0°
Enters shadow 09:42:56 34° 248° (WSW) 1,366 2.7 -18.9°
